Fremont, MI

7:39 PM EDT on September 17, 2019 (GMT -0400)
Fremont

Weather History for KFFX - June, 2019

Change the Weather History Date:

Wednesday, June 12, 2019

  Actual Average (KMKG) Record (KMKG)
Temperature  
Mean Temperature 64 °F -  
Max Temperature 70 °F 75 °F 91 °F (1976)
Min Temperature 57 °F 55 °F 41 °F (1947)
Degree Days  
Heating Degree Days 1    
Growing Degree Days 14 (Base 50)    
Moisture  
Dew Point 51 °F    
Average Humidity 69    
Maximum Humidity 97    
Minimum Humidity 46    
Precipitation  
Precipitation 0.00 in - - ()
Sea Level Pressure  
Sea Level Pressure 29.92 in    
Wind  
Wind Speed 4 mph ()    
Max Wind Speed 13 mph    
Max Gust Speed 20 mph    
Visibility 9.9 miles    
Events Rain    
Averages and records for this station are not official NWS values.
T = Trace of Precipitation, MM = Missing Value Source: Averaged Metar Reports

Daily Weather History Graph

Daily Weather History Graph

Search for Another Location

Airport or City:

Astronomy

Jun. 12, 2019 Rise Set
Actual Time 6:02 AM EDT 9:25 PM EDT
Civil Twilight 5:27 AM EDT 10:00 PM EDT
Nautical Twilight 4:40 AM EDT 10:47 PM EDT
Astronomical Twilight 3:43 AM EDT 11:45 PM EDT
Moon 4:22 PM EDT (6/12) 3:27 AM EDT (6/12)
Length of Visible Light 16h 33m
Length of Day
15h 22m
Waxing Gibbous, 76% of the Moon is Illuminated
Jun 12
Waxing Gibbous
Jun 17
Full
Jun 25
Last Quarter
Jul 2
New
Jul 9
First Quarter

Hourly Weather History & Observations

Time (EDT) Temp. Dew Point Humidity Pressure Visibility Wind Dir Wind Speed Gust Speed Precip Events Conditions
12:15 AM 60.4 °F 48.9 °F 66% 30.05 in 10.0 mi East 3.5 mph - N/A   Overcast
12:35 AM 61.5 °F 45.3 °F 55% 30.04 in 10.0 mi ESE 4.6 mph - N/A   Overcast
12:55 AM 61.7 °F 45.3 °F 55% 30.03 in 10.0 mi ESE 4.6 mph - N/A   Mostly Cloudy
1:18 AM 60.3 °F 46.2 °F 60% 30.03 in 10.0 mi SE 3.5 mph - N/A   Mostly Cloudy
1:35 AM 60.4 °F 46.8 °F 61% 30.03 in 10.0 mi ESE 3.5 mph - N/A   Overcast
1:55 AM 61.2 °F 46.0 °F 58% 30.03 in 10.0 mi ESE 3.5 mph - N/A   Overcast
1:56 AM 61.2 °F 46.0 °F 58% 30.03 in 10.0 mi ESE 4.6 mph - N/A   Overcast
2:15 AM 61.2 °F 46.0 °F 58% 30.02 in 10.0 mi ESE 3.5 mph - N/A   Overcast
2:16 AM 61.2 °F 46.0 °F 58% 30.02 in 10.0 mi ESE 4.6 mph - N/A   Overcast
2:39 AM 61.2 °F 46.2 °F 58% 30.01 in 10.0 mi SE 4.6 mph - N/A   Overcast
2:56 AM 61.5 °F 45.5 °F 56% 30.01 in 10.0 mi SE 4.6 mph - N/A   Overcast
3:15 AM 61.7 °F 44.8 °F 54% 30.00 in 10.0 mi SE 4.6 mph - N/A   Mostly Cloudy
3:16 AM 61.7 °F 44.8 °F 54% 30.00 in 10.0 mi SE 4.6 mph - N/A   Overcast
3:35 AM 61.5 °F 44.6 °F 54% 30.00 in 10.0 mi SSE 3.5 mph - N/A   Overcast
3:36 AM 61.5 °F 44.6 °F 54% 30.00 in 10.0 mi SSE 3.5 mph - N/A   Overcast
3:55 AM 61.7 °F 43.9 °F 52% 30.00 in 10.0 mi SSE 3.5 mph - N/A   Overcast
3:59 AM 61.7 °F 44.2 °F 53% 30.00 in 10.0 mi SSE 4.6 mph - N/A   Mostly Cloudy
4:17 AM 61.3 °F 44.1 °F 53% 29.99 in 10.0 mi SSE 3.5 mph - N/A   Scattered Clouds
4:35 AM 61.5 °F 44.1 °F 53% 29.98 in 10.0 mi SSE 4.6 mph - N/A   Scattered Clouds
4:55 AM 61.2 °F 44.2 °F 54% 29.98 in 10.0 mi SSE 4.6 mph - N/A   Clear
4:56 AM 61.2 °F 44.2 °F 54% 29.98 in 10.0 mi South 5.8 mph - N/A   Clear
5:15 AM 61.0 °F 44.1 °F 54% 29.98 in 10.0 mi South 5.8 mph - N/A   Clear
5:20 AM 61.2 °F 43.9 °F 53% 29.98 in 10.0 mi South 6.9 mph - N/A   Scattered Clouds
5:38 AM 61.0 °F 43.9 °F 53% 29.98 in 10.0 mi SSE 5.8 mph - N/A   Mostly Cloudy
5:56 AM 60.8 °F 44.1 °F 54% 29.97 in 10.0 mi South 4.6 mph - N/A   Overcast
6:15 AM 60.8 °F 44.4 °F 55% 29.97 in 10.0 mi SSE 6.9 mph - N/A   Mostly Cloudy
6:35 AM 60.4 °F 44.6 °F 56% 29.97 in 10.0 mi South 4.6 mph - N/A   Scattered Clouds
6:59 AM 60.3 °F 45.9 °F 59% 29.98 in 10.0 mi WSW 4.6 mph - N/A   Clear
7:16 AM 60.1 °F 47.1 °F 62% 29.98 in 10.0 mi SW 4.6 mph - N/A   Mostly Cloudy
7:35 AM 60.8 °F 47.1 °F 61% 29.98 in 10.0 mi WSW 4.6 mph - N/A   Mostly Cloudy
7:36 AM 60.8 °F 46.9 °F 60% 29.98 in 10.0 mi SW 3.5 mph - N/A   Mostly Cloudy
7:55 AM 61.7 °F 47.7 °F 60% 29.97 in 10.0 mi SSW 6.9 mph - N/A   Overcast
8:15 AM 61.7 °F 48.4 °F 62% 29.97 in 10.0 mi SW 9.2 mph - N/A Rain Light Rain
8:38 AM 62.1 °F 48.7 °F 62% 29.97 in 10.0 mi SW 8.1 mph - N/A   Scattered Clouds
8:56 AM 62.2 °F 48.9 °F 62% 29.97 in 10.0 mi SSW 6.9 mph - N/A   Scattered Clouds
9:15 AM 60.8 °F 50.9 °F 70% 29.96 in 10.0 mi SW 4.6 mph - N/A   Light Drizzle
9:35 AM 61.7 °F 50.4 °F 66% 29.96 in 10.0 mi SW 4.6 mph - N/A   Mostly Cloudy
9:59 AM 62.4 °F 50.2 °F 64% 29.96 in 10.0 mi SW 9.2 mph - N/A   Mostly Cloudy
10:17 AM 62.1 °F 49.8 °F 64% 29.96 in 10.0 mi SSW 8.1 mph - N/A   Scattered Clouds
10:36 AM 62.1 °F 50.7 °F 66% 29.96 in 10.0 mi WSW 5.8 mph - N/A   Light Drizzle
10:55 AM 61.7 °F 51.1 °F 68% 29.95 in 10.0 mi Calm Calm - N/A   Overcast
10:56 AM 61.9 °F 51.3 °F 68% 29.95 in 10.0 mi Calm Calm - N/A   Overcast
11:15 AM 61.9 °F 50.7 °F 67% 29.95 in 10.0 mi Calm Calm - N/A   Scattered Clouds
11:38 AM 63.0 °F 51.3 °F 66% 29.94 in 10.0 mi East 4.6 mph - N/A   Scattered Clouds
11:56 AM 64.0 °F 50.4 °F 61% 29.93 in 10.0 mi ESE 3.5 mph - N/A   Scattered Clouds
12:15 PM 65.3 °F 49.3 °F 56% 29.93 in 10.0 mi East 4.6 mph - N/A   Clear
12:35 PM 67.3 °F 49.8 °F 53% 29.92 in 10.0 mi East 5.8 mph - N/A   Scattered Clouds
12:59 PM 67.8 °F 49.5 °F 52% 29.91 in 10.0 mi ESE 5.8 mph - N/A   Scattered Clouds
1:17 PM 69.8 °F 50.7 °F 51% 29.90 in 10.0 mi ESE 8.1 mph - N/A   Clear
1:35 PM 69.8 °F 50.0 °F 49% 29.89 in 10.0 mi SSE 3.5 mph - N/A Rain Light Rain
1:55 PM 70.5 °F 48.6 °F 46% 29.89 in 10.0 mi SSW 10.4 mph - N/A   Mostly Cloudy
2:15 PM 66.4 °F 51.4 °F 59% 29.90 in 7.0 mi SSW 12.7 mph 19.6 mph N/A Rain Rain
2:38 PM 64.6 °F 52.0 °F 64% 29.90 in 10.0 mi SW 5.8 mph - N/A   Drizzle
2:56 PM 63.7 °F 51.1 °F 64% 29.88 in 10.0 mi West 4.6 mph - N/A   Light Drizzle
3:15 PM 63.9 °F 52.5 °F 67% 29.88 in 10.0 mi West 8.1 mph - N/A Rain Light Rain
3:16 PM 64.0 °F 52.3 °F 66% 29.88 in 10.0 mi West 8.1 mph - N/A Rain Light Rain
3:35 PM 64.9 °F 52.2 °F 63% 29.88 in 10.0 mi West 9.2 mph - N/A Rain Light Rain
3:36 PM 64.9 °F 52.2 °F 63% 29.88 in 10.0 mi West 8.1 mph - N/A Rain Light Rain
3:58 PM 63.9 °F 52.2 °F 66% 29.87 in 10.0 mi West 12.7 mph 19.6 mph N/A   Overcast
4:17 PM 63.7 °F 53.4 °F 69% 29.88 in 10.0 mi WSW 5.8 mph - N/A   Mostly Cloudy
4:35 PM 62.6 °F 53.2 °F 71% 29.88 in 10.0 mi Calm Calm - N/A Rain Light Rain
4:55 PM 61.9 °F 55.4 °F 79% 29.86 in 10.0 mi WNW 4.6 mph - N/A Rain Rain
4:56 PM 61.9 °F 55.4 °F 79% 29.86 in 10.0 mi WNW 3.5 mph - N/A   Drizzle
5:15 PM 61.2 °F 56.3 °F 84% 29.85 in 7.0 mi NW 5.8 mph - N/A Rain Rain
5:20 PM 61.0 °F 56.1 °F 84% 29.85 in 10.0 mi NNW 3.5 mph - N/A Rain Rain
5:38 PM 60.8 °F 55.9 °F 84% 29.86 in 10.0 mi Calm Calm - N/A   Overcast
5:56 PM 61.0 °F 56.7 °F 86% 29.86 in 10.0 mi Calm Calm - N/A Rain Rain
6:15 PM 60.8 °F 57.2 °F 88% 29.85 in 10.0 mi Calm Calm - N/A Rain Light Rain
6:35 PM 60.8 °F 57.9 °F 90% 29.83 in 10.0 mi North 4.6 mph - N/A Rain Light Rain
6:36 PM 60.8 °F 57.7 °F 90% 29.83 in 10.0 mi North 4.6 mph - N/A   Light Drizzle
6:59 PM 60.6 °F 57.0 °F 88% 29.83 in 10.0 mi North 3.5 mph - N/A   Overcast
7:17 PM 60.6 °F 57.4 °F 89% 29.83 in 10.0 mi Calm Calm - N/A   Overcast
7:35 PM 60.8 °F 56.5 °F 86% 29.83 in 10.0 mi Calm Calm - N/A   Mostly Cloudy
7:55 PM 60.8 °F 57.6 °F 89% 29.84 in 10.0 mi Calm Calm - N/A   Scattered Clouds
8:15 PM 60.3 °F 57.9 °F 92% 29.83 in 10.0 mi NE 4.6 mph - N/A   Scattered Clouds
8:20 PM 60.1 °F 57.9 °F 93% 29.82 in 10.0 mi ENE 3.5 mph - N/A   Scattered Clouds
8:38 PM 59.9 °F 57.6 °F 92% 29.82 in 10.0 mi ENE 3.5 mph - N/A   Clear
8:56 PM 59.9 °F 57.6 °F 92% 29.82 in 10.0 mi ENE 4.6 mph - N/A   Scattered Clouds
9:15 PM 59.5 °F 57.6 °F 93% 29.81 in 10.0 mi ENE 4.6 mph - N/A   Scattered Clouds
9:35 PM 59.5 °F 57.7 °F 94% 29.80 in 10.0 mi NE 4.6 mph - N/A Rain Light Rain
9:59 PM 59.2 °F 57.6 °F 94% 29.81 in 10.0 mi Calm Calm - N/A   Overcast
10:17 PM 59.0 °F 57.4 °F 94% 29.80 in 10.0 mi ENE 5.8 mph - N/A   Overcast
10:35 PM 59.0 °F 57.7 °F 96% 29.80 in 10.0 mi ENE 5.8 mph - N/A   Light Drizzle
10:55 PM 59.0 °F 57.4 °F 94% 29.80 in 10.0 mi NNE 3.5 mph - N/A   Overcast
10:56 PM 59.0 °F 57.4 °F 94% 29.80 in 10.0 mi North 3.5 mph - N/A   Overcast
11:15 PM 58.6 °F 57.4 °F 96% 29.80 in 7.0 mi NNE 4.6 mph - N/A Rain Rain
11:20 PM 58.5 °F 57.6 °F 97% 29.80 in 7.0 mi North 3.5 mph - N/A Rain Rain
11:38 PM 58.1 °F 57.4 °F 97% 29.78 in 10.0 mi NNE 9.2 mph - N/A   Light Drizzle
11:56 PM 57.9 °F 56.8 °F 96% 29.79 in 10.0 mi NE 4.6 mph - N/A   Overcast